TimeAST,TemperatureF,Dew PointF,Humidity,Sea Level PressureIn,VisibilityMPH,Wind Direction,Wind SpeedMPH,Gust SpeedMPH,PrecipitationIn,Events,Conditions,WindDirDegrees,DateUTC
2:00 AM,80.6,71.6,74,29.89,-9999.0,ENE,5.8,-,N/A,,Unknown,70,2012-11-29 06:00:00
3:00 AM,78.8,73.4,83,29.86,-9999.0,ENE,5.8,-,N/A,,Unknown,70,2012-11-29 07:00:00
8:00 AM,80,76,84,29.95,19,ENE,8.1,,,,Partly Cloudy,70,2012-11-29 12:00:00
8:00 AM,80.6,75.2,84,29.95,6.2,ENE,8.1,-,N/A,,Scattered Clouds,70,2012-11-29 12:00:00
9:00 AM,78.8,73.4,83,29.95,6.2,East,9.2,-,N/A,,Scattered Clouds,90,2012-11-29 13:00:00
10:00 AM,84.2,75.2,74,29.95,6.2,East,8.1,-,N/A,,Mostly Cloudy,80,2012-11-29 14:00:00
11:00 AM,79,76,86,29.98,19,East,8.1,,,,,100,2012-11-29 15:00:00
11:00 AM,78.8,75.2,89,29.95,6.2,ESE,8.1,-,N/A,Rain,Rain,110,2012-11-29 15:00:00
12:00 PM,84.2,75.2,74,29.92,-9999.0,North,-9999.0,-,N/A,,Unknown,0,2012-11-29 16:00:00
1:00 PM,87.8,75.2,66,29.92,-9999.0,ESE,10.4,-,N/A,,Unknown,120,2012-11-29 17:00:00
2:00 PM,86.0,73.4,66,29.89,-9999.0,East,11.5,-,N/A,,Unknown,90,2012-11-29 18:00:00
3:00 PM,87.8,75.2,66,29.86,-9999.0,ESE,10.4,-,N/A,,Unknown,110,2012-11-29 19:00:00
4:00 PM,84.2,73.4,70,29.86,6.2,East,11.5,-,N/A,,Scattered Clouds,90,2012-11-29 20:00:00
5:00 PM,86,80,79,29.87,19,East,10.4,,,,Partly Cloudy,90,2012-11-29 21:00:00
5:00 PM,86.0,75.2,70,29.86,6.2,East,9.2,-,N/A,,Scattered Clouds,90,2012-11-29 21:00:00
6:00 PM,82.4,75.2,79,29.86,6.2,East,11.5,-,N/A,,Scattered Clouds,100,2012-11-29 22:00:00
7:00 PM,80.6,73.4,79,29.89,-9999.0,East,6.9,-,N/A,,Unknown,90,2012-11-29 23:00:00
8:00 PM,80.6,75.2,84,29.89,-9999.0,East,4.6,-,N/A,,Unknown,90,2012-11-30 00:00:00
9:00 PM,80.6,75.2,84,29.92,-9999.0,East,4.6,-,N/A,,Unknown,90,2012-11-30 01:00:00
10:00 PM,78.8,73.4,83,29.95,-9999.0,North,-9999.0,-,N/A,Rain,Rain,0,2012-11-30 02:00:00
11:00 PM,77,74,90,,6,SE,3.5,,,,Clear,140,2012-11-30 03:00:00
11:00 PM,77.0,75.2,94,29.95,-9999.0,North,-9999.0,-,N/A,,Unknown,0,2012-11-30 03:00:00